Location: Unspecified
(0.0000°N, 0.0000°E)
Time: 00:24:59
(UTC+00:00)

CAPRICORN - Pass Details

Date: 26 May 2026
Orbit: 325 x 40040 km, 64.5° (Epoch: 16 April)

Event Time Altitude Azimuth Distance (km) Brightness Sun altitude
Rises 19:56:30 0° 110° (ESE) 42,860 ? -27.7°
Reaches altitude 10° 20:45:48 10° 105° (ESE) 43,938 ? -38.8°
Maximum altitude 01:12:44 60° 49° (NE) 29,431 ? -61.9°
Drops below altitude 10° 03:05:04 10° 16° (NNE) 12,987 ? -39.5°
Sets 03:11:41 0° 18° (NNE) 12,199 ? -38.0°
